Terminal Aerodrome Forecast
Issued by NWS Huntsville, AL

Home | Current Version | Previous Version | Text Only | Print | Product List | Glossary On
Versions: 1 2 3 4 5 6 7 8 9 10 11 12 13 14 15 16 17 18 19 20 21 22 23 24 25 26 27 28 29 30
000
FTUS44 KHUN 261459 AAB
TAFHSV
TAF AMD
KHSV 261459Z 2615/2712 14012G18KT P6SM BKN015 OVC250
     FM261800 20010KT P6SM SHRA VCTS BKN025CB BKN150
     FM270200 16006KT P6SM FEW070 SCT250=

USA.gov is the U.S. government's official web portal to all federal, state and local government web resources and services.